Time,TemperatureF,DewpointF,PressureIn,WindDirection,WindDirectionDegrees,WindSpeedMPH,WindSpeedGustMPH,Humidity,HourlyPrecipIn,Conditions,Clouds,dailyrainin,SoftwareType,DateUTC
2013-03-26 00:02:00,58.0,36.0,-100.00,West,266,9.0,13.0,43,-99.99,,,-99.99,,2013-03-26 07:02:00,
2013-03-26 00:12:00,58.0,36.0,-100.00,West,267,10.0,13.0,43,-99.99,,,-99.99,,2013-03-26 07:12:00,
2013-03-26 00:22:00,58.0,36.0,-100.00,West,268,10.0,13.0,43,-99.99,,,-99.99,,2013-03-26 07:22:00,
2013-03-26 00:32:00,58.0,36.0,-100.00,West,267,9.0,13.0,43,-99.99,,,-99.99,,2013-03-26 07:32:00,
2013-03-26 00:42:00,58.0,36.0,-100.00,West,269,10.0,13.0,43,-99.99,,,-99.99,,2013-03-26 07:42:00,
2013-03-26 00:52:00,57.0,35.0,-100.00,West,271,9.0,12.0,43,-99.99,,,-99.99,,2013-03-26 07:52:00,
2013-03-26 01:02:00,57.0,35.0,-100.00,West,273,10.0,14.0,44,-99.99,,,-99.99,,2013-03-26 08:02:00,
2013-03-26 01:12:00,57.0,35.0,-100.00,West,274,10.0,14.0,43,-99.99,,,-99.99,,2013-03-26 08:12:00,
2013-03-26 01:22:00,57.0,34.0,-100.00,West,274,11.0,14.0,41,-99.99,,,-99.99,,2013-03-26 08:22:00,
2013-03-26 01:31:00,57.0,34.0,-100.00,West,274,11.0,14.0,41,-99.99,,,-99.99,,2013-03-26 08:31:00,
2013-03-26 01:42:00,56.0,32.0,-100.00,West,274,11.0,14.0,40,-99.99,,,-99.99,,2013-03-26 08:42:00,
2013-03-26 01:52:00,56.0,32.0,-100.00,West,272,10.0,13.0,40,-99.99,,,-99.99,,2013-03-26 08:52:00,
2013-03-26 02:02:00,56.0,31.0,-100.00,West,268,8.0,12.0,39,-99.99,,,-99.99,,2013-03-26 09:02:00,
2013-03-26 02:12:00,56.0,31.0,-100.00,West,268,8.0,12.0,39,-99.99,,,-99.99,,2013-03-26 09:12:00,
2013-03-26 02:22:00,56.0,32.0,-100.00,West,269,10.0,13.0,40,-99.99,,,-99.99,,2013-03-26 09:22:00,
2013-03-26 02:32:00,56.0,32.0,-100.00,West,268,10.0,15.0,40,-99.99,,,-99.99,,2013-03-26 09:32:00,
2013-03-26 02:42:00,56.0,31.0,-100.00,West,267,11.0,15.0,39,-99.99,,,-99.99,,2013-03-26 09:42:00,
2013-03-26 02:52:00,56.0,32.0,-100.00,West,267,10.0,15.0,40,-99.99,,,-99.99,,2013-03-26 09:52:00,
2013-03-26 03:02:00,56.0,33.0,-100.00,West,264,10.0,13.0,41,-99.99,,,-99.99,,2013-03-26 10:02:00,
2013-03-26 03:12:00,56.0,33.0,-100.00,West,264,11.0,14.0,41,-99.99,,,-99.99,,2013-03-26 10:12:00,
2013-03-26 03:22:00,55.0,32.0,-100.00,West,260,10.0,14.0,42,-99.99,,,-99.99,,2013-03-26 10:22:00,
2013-03-26 03:32:00,55.0,33.0,-100.00,WSW,258,10.0,14.0,43,-99.99,,,-99.99,,2013-03-26 10:32:00,
2013-03-26 03:42:00,55.0,32.0,-100.00,WSW,258,11.0,14.0,42,-99.99,,,-99.99,,2013-03-26 10:42:00,
2013-03-26 03:52:00,55.0,32.0,-100.00,West,259,11.0,14.0,41,-99.99,,,-99.99,,2013-03-26 10:52:00,
2013-03-26 04:02:00,55.0,31.0,-100.00,West,261,11.0,14.0,40,-99.99,,,-99.99,,2013-03-26 11:02:00,
2013-03-26 04:12:00,55.0,31.0,-100.00,West,262,11.0,13.0,40,-99.99,,,-99.99,,2013-03-26 11:12:00,
2013-03-26 04:21:00,55.0,31.0,-100.00,West,263,11.0,14.0,40,-99.99,,,-99.99,,2013-03-26 11:21:00,
2013-03-26 04:32:00,55.0,31.0,-100.00,West,259,10.0,14.0,40,-99.99,,,-99.99,,2013-03-26 11:32:00,
2013-03-26 04:42:00,55.0,32.0,-100.00,WSW,255,10.0,14.0,41,-99.99,,,-99.99,,2013-03-26 11:42:00,
2013-03-26 04:52:00,55.0,31.0,-100.00,WSW,256,10.0,13.0,40,-99.99,,,-99.99,,2013-03-26 11:52:00,
2013-03-26 05:02:00,55.0,32.0,-100.00,WSW,257,10.0,13.0,41,-99.99,,,-99.99,,2013-03-26 12:02:00,
2013-03-26 05:12:00,54.0,31.0,-100.00,WSW,258,10.0,13.0,41,-99.99,,,-99.99,,2013-03-26 12:12:00,
2013-03-26 05:21:00,54.0,31.0,-100.00,WSW,256,10.0,12.0,41,-99.99,,,-99.99,,2013-03-26 12:21:00,
2013-03-26 05:32:00,54.0,31.0,-100.00,WSW,255,9.0,11.0,42,-99.99,,,-99.99,,2013-03-26 12:32:00,
2013-03-26 05:42:00,54.0,31.0,-100.00,WSW,252,10.0,13.0,42,-99.99,,,-99.99,,2013-03-26 12:42:00,
2013-03-26 05:52:00,54.0,31.0,-100.00,WSW,250,9.0,13.0,42,-99.99,,,-99.99,,2013-03-26 12:52:00,
2013-03-26 06:02:00,54.0,32.0,-100.00,WSW,255,9.0,13.0,43,-99.99,,,-99.99,,2013-03-26 13:02:00,
2013-03-26 06:12:00,54.0,33.0,-100.00,WSW,254,8.0,12.0,44,-99.99,,,-99.99,,2013-03-26 13:12:00,
2013-03-26 06:22:00,54.0,31.0,-100.00,WSW,252,9.0,12.0,42,-99.99,,,-99.99,,2013-03-26 13:22:00,
2013-03-26 06:32:00,54.0,31.0,-100.00,WSW,250,11.0,14.0,41,-99.99,,,-99.99,,2013-03-26 13:32:00,
2013-03-26 06:42:00,54.0,30.0,-100.00,WSW,250,11.0,14.0,40,-99.99,,,-99.99,,2013-03-26 13:42:00,
2013-03-26 06:52:00,54.0,28.0,-100.00,WSW,252,10.0,15.0,37,-99.99,,,-99.99,,2013-03-26 13:52:00,
2013-03-26 07:01:00,55.0,26.0,-100.00,WSW,253,11.0,15.0,33,-99.99,,,-99.99,,2013-03-26 14:01:00,
2013-03-26 07:11:00,54.0,29.0,-100.00,WSW,256,9.0,14.0,38,-99.99,,,-99.99,,2013-03-26 14:11:00,
2013-03-26 07:21:00,53.0,30.0,-100.00,WSW,252,9.0,12.0,41,-99.99,,,-99.99,,2013-03-26 14:21:00,
2013-03-26 07:32:00,53.0,30.0,-100.00,WSW,252,8.0,11.0,41,-99.99,,,-99.99,,2013-03-26 14:32:00,
2013-03-26 07:42:00,52.0,30.0,-100.00,WSW,250,7.0,11.0,42,-99.99,,,-99.99,,2013-03-26 14:42:00,
2013-03-26 07:52:00,53.0,29.0,-100.00,WSW,239,10.0,12.0,40,-99.99,,,-99.99,,2013-03-26 14:52:00,
2013-03-26 08:02:00,53.0,29.0,-100.00,SW,235,9.0,13.0,40,-99.99,,,-99.99,,2013-03-26 15:02:00,
2013-03-26 08:12:00,53.0,31.0,-100.00,SW,235,10.0,13.0,42,-99.99,,,-99.99,,2013-03-26 15:12:00,
2013-03-26 08:21:00,54.0,32.0,-100.00,WSW,238,9.0,14.0,43,-99.99,,,-99.99,,2013-03-26 15:21:00,
2013-03-26 08:33:00,54.0,33.0,-100.00,SW,235,9.0,12.0,44,-99.99,,,-99.99,,2013-03-26 15:33:00,
2013-03-26 08:42:00,54.0,33.0,-100.00,WSW,238,7.0,12.0,44,-99.99,,,-99.99,,2013-03-26 15:42:00,
2013-03-26 08:52:00,54.0,33.0,-100.00,WSW,240,4.0,8.0,44,-99.99,,,-99.99,,2013-03-26 15:52:00,
2013-03-26 09:12:00,55.0,33.0,-100.00,WSW,238,4.0,7.0,44,-99.99,,,-99.99,,2013-03-26 16:12:00,
2013-03-26 09:22:00,56.0,33.0,-100.00,WSW,255,4.0,9.0,41,-99.99,,,-99.99,,2013-03-26 16:22:00,
2013-03-26 09:32:00,57.0,32.0,-100.00,WSW,248,7.0,11.0,39,-99.99,,,-99.99,,2013-03-26 16:32:00,
2013-03-26 09:42:00,58.0,31.0,-100.00,WSW,252,9.0,13.0,36,-99.99,,,-99.99,,2013-03-26 16:42:00,
2013-03-26 09:53:00,59.0,29.0,-100.00,WSW,245,10.0,15.0,32,-99.99,,,-99.99,,2013-03-26 16:53:00,
2013-03-26 10:02:00,59.0,29.0,-100.00,WSW,245,10.0,15.0,32,-99.99,,,-99.99,,2013-03-26 17:02:00,
2013-03-26 10:12:00,60.0,28.0,-100.00,WSW,251,10.0,15.0,29,-99.99,,,-99.99,,2013-03-26 17:12:00,
2013-03-26 10:22:00,60.0,28.0,-100.00,WSW,251,10.0,15.0,29,-99.99,,,-99.99,,2013-03-26 17:22:00,
2013-03-26 10:32:00,60.0,28.0,-100.00,WSW,251,10.0,15.0,29,-99.99,,,-99.99,,2013-03-26 17:32:00,
2013-03-26 10:42:00,62.0,26.0,-100.00,WSW,251,12.0,18.0,25,-99.99,,,-99.99,,2013-03-26 17:42:00,
2013-03-26 10:53:00,63.0,26.0,-100.00,WSW,255,12.0,18.0,24,-99.99,,,-99.99,,2013-03-26 17:53:00,
2013-03-26 11:02:00,63.0,25.0,-100.00,West,265,12.0,17.0,23,-99.99,,,-99.99,,2013-03-26 18:02:00,
2013-03-26 11:12:00,63.0,25.0,-100.00,West,262,13.0,19.0,23,-99.99,,,-99.99,,2013-03-26 18:12:00,
2013-03-26 11:22:00,63.0,24.0,-100.00,West,259,12.0,17.0,22,-99.99,,,-99.99,,2013-03-26 18:22:00,
2013-03-26 11:33:00,64.0,24.0,-100.00,WSW,255,12.0,19.0,22,-99.99,,,-99.99,,2013-03-26 18:33:00,
2013-03-26 11:42:00,64.0,24.0,-100.00,WSW,255,12.0,19.0,22,-99.99,,,-99.99,,2013-03-26 18:42:00,
2013-03-26 11:52:00,64.0,22.0,-100.00,WSW,258,14.0,19.0,20,-99.99,,,-99.99,,2013-03-26 18:52:00,
2013-03-26 12:02:00,65.0,22.0,-100.00,WSW,253,13.0,20.0,19,-99.99,,,-99.99,,2013-03-26 19:02:00,
2013-03-26 12:12:00,66.0,24.0,-100.00,WSW,256,12.0,19.0,20,-99.99,,,-99.99,,2013-03-26 19:12:00,
2013-03-26 12:22:00,66.0,21.0,-100.00,WSW,252,13.0,20.0,18,-99.99,,,-99.99,,2013-03-26 19:22:00,
2013-03-26 12:32:00,66.0,20.0,-100.00,West,264,14.0,25.0,17,-99.99,,,-99.99,,2013-03-26 19:32:00,
2013-03-26 12:42:00,66.0,19.0,-100.00,WSW,249,14.0,21.0,16,-99.99,,,-99.99,,2013-03-26 19:42:00,
2013-03-26 12:52:00,66.0,17.0,-100.00,WSW,253,14.0,19.0,15,-99.99,,,-99.99,,2013-03-26 19:52:00,
2013-03-26 13:01:00,67.0,16.0,-100.00,West,260,14.0,22.0,14,-99.99,,,-99.99,,2013-03-26 20:01:00,
2013-03-26 13:12:00,67.0,15.0,-100.00,West,264,14.0,22.0,13,-99.99,,,-99.99,,2013-03-26 20:12:00,
2013-03-26 13:22:00,67.0,13.0,-100.00,WSW,255,15.0,21.0,12,-99.99,,,-99.99,,2013-03-26 20:22:00,
2013-03-26 13:32:00,67.0,16.0,-100.00,West,263,14.0,22.0,14,-99.99,,,-99.99,,2013-03-26 20:32:00,
2013-03-26 13:42:00,67.0,16.0,-100.00,West,263,14.0,22.0,14,-99.99,,,-99.99,,2013-03-26 20:42:00,
2013-03-26 13:52:00,67.0,15.0,-100.00,West,260,15.0,23.0,13,-99.99,,,-99.99,,2013-03-26 20:52:00,
2013-03-26 14:02:00,67.0,13.0,-100.00,West,265,14.0,24.0,12,-99.99,,,-99.99,,2013-03-26 21:02:00,
2013-03-26 14:12:00,67.0,15.0,-100.00,West,264,14.0,22.0,13,-99.99,,,-99.99,,2013-03-26 21:12:00,
2013-03-26 14:22:00,67.0,15.0,-100.00,WSW,255,15.0,24.0,13,-99.99,,,-99.99,,2013-03-26 21:22:00,
2013-03-26 14:32:00,67.0,13.0,-100.00,WSW,246,17.0,25.0,12,-99.99,,,-99.99,,2013-03-26 21:32:00,
2013-03-26 14:42:00,67.0,16.0,-100.00,WSW,252,16.0,23.0,14,-99.99,,,-99.99,,2013-03-26 21:42:00,
2013-03-26 14:52:00,67.0,21.0,-100.00,WSW,252,15.0,23.0,17,-99.99,,,-99.99,,2013-03-26 21:52:00,
2013-03-26 15:01:00,67.0,23.0,-100.00,WSW,249,16.0,23.0,19,-99.99,,,-99.99,,2013-03-26 22:01:00,
2013-03-26 15:12:00,67.0,26.0,-100.00,West,261,17.0,25.0,21,-99.99,,,-99.99,,2013-03-26 22:12:00,
2013-03-26 15:22:00,67.0,27.0,-100.00,WSW,249,17.0,25.0,22,-99.99,,,-99.99,,2013-03-26 22:22:00,
2013-03-26 15:32:00,67.0,27.0,-100.00,WSW,250,17.0,25.0,22,-99.99,,,-99.99,,2013-03-26 22:32:00,
2013-03-26 15:41:00,66.0,26.0,-100.00,West,260,18.0,27.0,22,-99.99,,,-99.99,,2013-03-26 22:41:00,
2013-03-26 15:52:00,66.0,26.0,-100.00,WSW,255,17.0,27.0,22,-99.99,,,-99.99,,2013-03-26 22:52:00,
2013-03-26 16:00:00,66.0,25.0,-100.00,WSW,252,17.0,24.0,21,-99.99,,,-99.99,,2013-03-26 23:00:00,
2013-03-26 16:10:00,66.0,27.0,-100.00,WSW,251,17.0,26.0,23,-99.99,,,-99.99,,2013-03-26 23:10:00,
2013-03-26 16:21:00,66.0,27.0,-100.00,WSW,245,19.0,29.0,23,-99.99,,,-99.99,,2013-03-26 23:21:00,
2013-03-26 16:31:00,65.0,29.0,-100.00,WSW,255,18.0,26.0,26,-99.99,,,-99.99,,2013-03-26 23:31:00,
2013-03-26 16:42:00,66.0,31.0,-100.00,WSW,252,16.0,26.0,27,-99.99,,,-99.99,,2013-03-26 23:42:00,
2013-03-26 16:52:00,65.0,31.0,-100.00,WSW,252,18.0,26.0,28,-99.99,,,-99.99,,2013-03-26 23:52:00,
2013-03-26 17:02:00,65.0,31.0,-100.00,West,261,18.0,26.0,28,-99.99,,,-99.99,,2013-03-27 00:02:00,
2013-03-26 17:12:00,65.0,30.0,-100.00,WSW,252,17.0,26.0,27,-99.99,,,-99.99,,2013-03-27 00:12:00,
2013-03-26 17:22:00,65.0,30.0,-100.00,WSW,248,17.0,24.0,27,-99.99,,,-99.99,,2013-03-27 00:22:00,
2013-03-26 17:32:00,65.0,31.0,-100.00,WSW,253,17.0,23.0,28,-99.99,,,-99.99,,2013-03-27 00:32:00,
2013-03-26 17:42:00,65.0,31.0,-100.00,WSW,253,17.0,23.0,28,-99.99,,,-99.99,,2013-03-27 00:42:00,
2013-03-26 17:52:00,64.0,31.0,-100.00,WSW,254,15.0,24.0,29,-99.99,,,-99.99,,2013-03-27 00:52:00,
2013-03-26 18:02:00,63.0,31.0,-100.00,WSW,250,17.0,25.0,30,-99.99,,,-99.99,,2013-03-27 01:02:00,
2013-03-26 18:12:00,62.0,30.0,-100.00,West,262,15.0,22.0,30,-99.99,,,-99.99,,2013-03-27 01:12:00,
2013-03-26 18:22:00,62.0,30.0,-100.00,WSW,255,17.0,22.0,30,-99.99,,,-99.99,,2013-03-27 01:22:00,
2013-03-26 18:32:00,61.0,30.0,-100.00,WSW,255,18.0,26.0,31,-99.99,,,-99.99,,2013-03-27 01:32:00,
2013-03-26 18:42:00,61.0,31.0,-100.00,WSW,252,18.0,24.0,32,-99.99,,,-99.99,,2013-03-27 01:42:00,
2013-03-26 18:52:00,60.0,30.0,-100.00,WSW,254,17.0,26.0,32,-99.99,,,-99.99,,2013-03-27 01:52:00,
2013-03-26 19:02:00,59.0,30.0,-100.00,WSW,253,17.0,25.0,33,-99.99,,,-99.99,,2013-03-27 02:02:00,
2013-03-26 19:12:00,58.0,30.0,-100.00,WSW,255,16.0,22.0,34,-99.99,,,-99.99,,2013-03-27 02:12:00,
2013-03-26 19:21:00,57.0,30.0,-100.00,WSW,253,17.0,22.0,35,-99.99,,,-99.99,,2013-03-27 02:21:00,
2013-03-26 19:32:00,57.0,30.0,-100.00,WSW,253,17.0,24.0,36,-99.99,,,-99.99,,2013-03-27 02:32:00,
2013-03-26 19:42:00,56.0,31.0,-100.00,WSW,251,17.0,23.0,38,-99.99,,,-99.99,,2013-03-27 02:42:00,
2013-03-26 19:52:00,55.0,31.0,-100.00,WSW,250,18.0,24.0,40,-99.99,,,-99.99,,2013-03-27 02:52:00,
2013-03-26 20:02:00,54.0,32.0,-100.00,WSW,249,19.0,24.0,43,-99.99,,,-99.99,,2013-03-27 03:02:00,
2013-03-26 20:11:00,53.0,33.0,-100.00,WSW,252,20.0,26.0,46,-99.99,,,-99.99,,2013-03-27 03:11:00,
2013-03-26 20:22:00,53.0,34.0,-100.00,WSW,252,20.0,26.0,48,-99.99,,,-99.99,,2013-03-27 03:22:00,
2013-03-26 20:32:00,53.0,35.0,-100.00,WSW,254,19.0,24.0,50,-99.99,,,-99.99,,2013-03-27 03:32:00,
2013-03-26 20:42:00,52.0,35.0,-100.00,WSW,253,19.0,24.0,52,-99.99,,,-99.99,,2013-03-27 03:42:00,
2013-03-26 20:52:00,52.0,35.0,-100.00,WSW,252,19.0,27.0,52,-99.99,,,-99.99,,2013-03-27 03:52:00,
2013-03-26 21:02:00,52.0,35.0,-100.00,WSW,253,17.0,23.0,52,-99.99,,,-99.99,,2013-03-27 04:02:00,
2013-03-26 21:12:00,52.0,34.0,-100.00,WSW,255,15.0,21.0,51,-99.99,,,-99.99,,2013-03-27 04:12:00,
2013-03-26 21:22:00,51.0,34.0,-100.00,WSW,255,13.0,18.0,52,-99.99,,,-99.99,,2013-03-27 04:22:00,
2013-03-26 21:32:00,51.0,34.0,-100.00,WSW,254,11.0,16.0,52,-99.99,,,-99.99,,2013-03-27 04:32:00,
2013-03-26 21:42:00,51.0,34.0,-100.00,WSW,257,11.0,16.0,52,-99.99,,,-99.99,,2013-03-27 04:42:00,
2013-03-26 21:52:00,51.0,33.0,-100.00,West,259,11.0,16.0,50,-99.99,,,-99.99,,2013-03-27 04:52:00,
2013-03-26 22:02:00,51.0,34.0,-100.00,WSW,256,12.0,17.0,51,-99.99,,,-99.99,,2013-03-27 05:02:00,
2013-03-26 22:12:00,51.0,34.0,-100.00,WSW,254,13.0,20.0,51,-99.99,,,-99.99,,2013-03-27 05:12:00,
2013-03-26 22:22:00,51.0,33.0,-100.00,WSW,256,13.0,19.0,50,-99.99,,,-99.99,,2013-03-27 05:22:00,
2013-03-26 22:32:00,51.0,32.0,-100.00,West,259,13.0,19.0,48,-99.99,,,-99.99,,2013-03-27 05:32:00,
2013-03-26 22:42:00,51.0,30.0,-100.00,West,259,14.0,20.0,45,-99.99,,,-99.99,,2013-03-27 05:42:00,
2013-03-26 22:52:00,51.0,29.0,-100.00,WSW,258,14.0,19.0,42,-99.99,,,-99.99,,2013-03-27 05:52:00,
2013-03-26 23:02:00,51.0,29.0,-100.00,WSW,257,14.0,19.0,42,-99.99,,,-99.99,,2013-03-27 06:02:00,
2013-03-26 23:11:00,51.0,29.0,-100.00,WSW,258,12.0,18.0,42,-99.99,,,-99.99,,2013-03-27 06:11:00,
2013-03-26 23:22:00,51.0,28.0,-100.00,West,264,9.0,15.0,40,-99.99,,,-99.99,,2013-03-27 06:22:00,
2013-03-26 23:32:00,51.0,26.0,-100.00,West,267,6.0,13.0,37,-99.99,,,-99.99,,2013-03-27 06:32:00,
2013-03-26 23:42:00,51.0,26.0,-100.00,West,267,6.0,13.0,37,-99.99,,,-99.99,,2013-03-27 06:42:00,